User: anonymous   Login
Location: Unspecified
(0.0000°N, 0.0000°E)
Time: 22:15:33
(UTC+00:00)
Language:

Vela 6A - Orbit

View from above orbital plane
View from above orbital plane
View from above satellite
View from above satellite

Ground track
Ground track

The orbit data is extracted from the following two-line orbital elements,

1 04366U 70027A   16335.62427108  .00000840  00000-0  00000+0 0  9994
2 04366  46.0231 210.0016 6415311  72.6998   0.3708  0.21477154 30236
Epoch (UTC): 30 November 2016 14:58:57
Eccentricity: 0.6415311
inclination: 46.0231°
perigee height: 35843 km
apogee height: 186965 km
right ascension of ascending node: 210.0016°
argument of perigee: 72.6998°
revolutions per day: 0.21477154
mean anomaly at epoch: 0.3708°
orbit number at epoch: 3023

The dashed part of the orbit path shows where the satellite is in the earth's shadow,  

DLR